Theta_e
301 295 292 295 297 297 295 294 292 295 296 296 296 296 299 302 302 302 303 304 306 306 309 310 310 312 318 326 329 331 332 335 333 331 330 330 329 330 330 331 331 331 330 329
296 292 297 299 298 295 294 293 292 293 295 295 296 295 299 301 302 303 303 304 306 307 308 308 308 310 310 312 321 327 330 333 335 332 332 332 331 331 332 331 329 329 330 329
294 295 299 296 294 293 293 292 292 291 293 295 293 292 295 300 301 303 304 305 306 307 307 308 308 307 309 310 311 314 324 330 333 332 331 331 331 330 329 329 327 327 327 327
296 296 296 295 293 294 290 294 293 291 291 287 293 286 295 297 297 298 300 303 304 304 304 305 306 307 308 308 311 310 313 320 329 335 330 329 327 325 327 328 329 326 325 324
293 293 293 293 294 296 292 295 293 292 291 290 290 287 292 294 294 297 301 302 303 305 305 305 306 306 308 311 311 309 308 313 320 328 331 329 327 328 330 329 326 326 324 324
294 296 296 295 294 296 295 293 293 292 290 283 289 288 289 293 294 296 299 301 302 303 304 304 305 306 309 314 315 309 307 309 316 322 329 327 327 326 326 327 325 325 324 322
291 292 295 296 292 294 295 291 284 283 283 282 287 287 290 297 296 296 298 299 301 302 303 304 304 305 307 310 314 312 307 311 316 322 325 328 326 325 325 326 326 323 321 320
286 284 292 295 294 291 291 291 286 281 281 284 285 283 290 297 297 297 297 300 301 301 302 302 303 304 305 307 312 314 312 313 315 320 323 325 323 324 324 325 327 324 322 322
287 287 294 294 295 295 290 288 293 284 281 284 287 290 295 296 295 296 296 298 299 301 301 302 302 303 304 305 307 311 312 312 315 318 319 318 319 320 320 320 321 321 319 316
292 285 291 292 295 295 293 295 285 287 282 280 285 287 289 292 293 295 296 297 299 300 300 301 302 302 303 304 305 306 309 310 309 310 311 312 312 311 311 312 310 310 309 309
293 290 287 291 289 289 289 289 290 290 288 283 281 286 295 296 297 296 297 298 299 298 299 300 300 300 301 302 303 304 305 306 307 308 307 306 306 307 307 307 307 307 309 309
294 291 286 287 293 295 294 290 291 286 284 286 285 287 295 295 296 300 299 300 300 300 299 299 299 299 299 299 300 301 302 301 302 303 303 303 304 304 303 303 303 304 304 305
294 289 286 285 290 293 289 291 292 292 290 285 283 286 297 295 297 299 299 298 297 298 298 298 298 298 298 298 298 298 298 298 299 300 299 299 299 299 298 298 299 299 300 300
296 292 287 283 286 290 287 289 291 289 285 286 287 289 293 294 295 297 298 297 297 297 297 297 297 297 297 297 297 297 297 298 298 298 297 296 296 296 296 296 296 296 296 296
295 287 289 290 291 291 291 290 290 288 289 286 289 289 293 296 296 297 298 298 297 296 296 297 296 296 296 295 295 296 295 295 295 293 292 292 292 292 292 292 293 293 292 293
294 288 290 286 290 290 288 290 291 291 291 290 290 290 297 299 299 298 297 297 295 296 296 296 296 295 294 293 293 292 291 291 291 289 288 288 288 288 288 288 288 288 289 290
290 289 286 283 289 288 284 287 289 290 293 291 287 292 296 296 297 298 298 297 296 296 295 295 294 293 292 291 291 289 289 289 288 287 286 285 285 285 285 285 285 285 286 287
288 286 288 284 285 277 288 295 294 291 292 294 294 295 296 297 299 300 301 298 297 297 296 295 294 291 289 289 288 287 287 286 285 284 283 283 283 282 282 283 283 283 284 284
291 288 285 282 283 287 290 293 292 290 290 295 294 295 296 297 299 298 301 301 299 298 296 294 292 289 287 286 286 285 284 283 282 281 280 280 279 278 279 280 280 281 282 282
290 290 285 284 281 279 289 292 297 296 285 296 296 295 295 295 289 294 300 300 299 296 293 289 287 286 284 284 284 281 280 279 277 277 277 277 277 276 277 278 278 279 280 281
281 284 281 283 283 286 288 290 294 284 287 288 290 292 294 294 295 298 299 297 294 290 287 286 284 281 280 281 281 278 277 275 275 275 275 275 274 274 276 276 276 277 278 279
283 282 282 283 281 280 289 290 288 289 291 289 291 292 290 294 293 294 292 288 286 283 283 282 278 277 277 279 278 276 274 274 273 272 272 272 272 273 275 273 275 275 277 277
283 289 287 288 288 294 290 293 293 291 289 291 290 290 291 290 289 288 286 284 282 281 280 278 276 274 274 274 276 273 271 271 270 270 270 271 272 273 273 273 274 275 276 276
287 289 287 287 291 292 293 292 292 291 291 289 289 289 290 289 286 284 282 280 279 278 277 276 274 272 270 270 270 270 269 269 268 269 270 272 271 271 273 273 274 273 274 274
286 287 287 286 289 289 290 290 290 290 287 286 287 288 289 287 284 282 279 278 277 276 276 276 275 272 270 269 268 267 267 266 268 269 270 270 271 270 271 272 272 273 274 274
286 285 284 284 288 289 289 286 289 289 286 285 285 284 285 284 282 281 278 277 275 274 274 273 272 270 268 268 266 265 265 265 265 269 269 268 268 269 270 270 270 274 275 275
Wind_Speed
10 11 15 16 14 7 7 11 9 6 3 5 12 14 14 13 13 12 12 12 12 12 11 10 9 10 13 14 15 17 16 18 11 10 10 9 8 8 7 7 6 11 11 12
8 15 13 8 8 5 3 8 8 3 3 4 6 12 15 14 16 16 16 15 14 13 13 8 9 9 12 13 15 16 17 17 14 9 9 8 8 8 9 8 9 8 10 11
13 6 12 11 11 12 11 11 4 5 3 3 5 13 17 14 16 15 16 15 13 14 12 11 11 10 10 12 12 14 15 16 15 14 8 6 6 4 7 7 7 9 10 10
12 5 14 13 14 11 13 6 1 3 2 6 2 7 4 7 10 12 14 15 13 14 8 7 6 8 8 8 7 11 12 15 14 16 11 13 10 9 7 7 8 9 11 10
7 11 13 13 13 14 5 6 5 2 5 5 7 7 5 3 9 14 14 11 7 5 4 4 3 2 2 4 7 9 11 13 14 14 15 11 13 9 9 8 10 9 9 11
5 2 7 3 6 9 15 10 4 3 2 7 11 8 8 10 9 4 3 6 7 7 5 3 2 1 1 1 3 5 10 12 12 13 14 14 12 11 8 7 7 7 5 7
5 6 6 7 10 7 11 11 4 4 6 7 5 6 15 5 4 5 8 8 7 6 5 4 2 3 3 4 2 1 6 8 9 10 11 13 14 10 9 6 6 7 5 5
13 10 13 10 9 10 17 14 7 7 6 3 1 9 8 4 2 4 1 3 6 6 5 3 2 2 3 4 4 5 3 2 5 7 9 8 1 3 3 4 4 6 6 8
13 9 11 12 4 14 8 10 5 6 2 2 7 10 12 9 7 7 10 8 8 8 6 5 3 3 4 5 5 5 5 4 3 2 3 5 5 4 4 4 3 2 3 2
7 5 2 5 3 4 9 11 5 5 6 7 9 12 14 5 14 12 12 11 9 7 6 5 4 4 4 4 5 6 6 7 6 6 6 5 6 6 5 5 4 4 3 2
7 6 4 6 13 17 6 10 8 6 9 8 9 12 6 8 12 15 12 11 11 9 8 6 5 4 4 4 5 6 7 8 7 7 6 7 6 6 5 5 5 4 3 2
12 3 6 8 4 10 17 20 22 9 10 8 9 15 6 2 3 7 13 12 12 10 9 8 7 6 5 5 6 6 8 8 7 7 8 8 8 8 8 7 7 6 5 5
12 6 4 5 6 7 8 14 15 18 7 11 9 19 4 3 5 6 11 11 10 10 10 8 8 7 6 6 6 7 8 8 8 8 8 9 9 9 9 8 8 7 6 6
12 3 15 16 12 11 10 12 16 15 11 19 16 27 17 6 8 9 10 12 12 11 11 10 9 8 7 6 7 7 8 8 8 9 10 9 9 9 9 8 8 8 7 7
10 6 10 18 15 13 8 13 18 20 24 19 26 25 30 15 13 15 13 12 13 13 13 12 11 9 8 8 8 8 8 8 9 10 10 10 9 9 9 8 7 6 5 4
4 3 4 10 9 9 10 11 19 26 26 24 29 26 30 13 10 11 14 15 15 16 16 14 12 11 10 9 9 8 9 9 9 10 9 9 8 6 7 6 6 6 6 6
3 4 3 20 3 3 6 34 21 21 25 25 24 33 21 21 13 16 15 18 20 18 15 14 13 12 9 10 9 9 9 8 9 9 8 8 7 7 7 7 7 7 7 6
3 3 3 4 4 9 20 13 24 27 26 24 23 30 24 14 16 17 18 22 21 16 17 15 13 13 11 10 10 10 8 8 8 8 7 8 7 7 7 7 7 7 6 7
8 3 3 7 11 13 20 10 14 16 27 29 30 29 26 19 2 14 19 15 17 19 14 13 12 13 12 10 10 9 8 8 8 8 8 7 6 6 7 6 7 6 7 6
9 10 5 5 7 11 22 3 4 7 20 12 19 28 24 6 11 24 15 18 18 18 17 16 15 12 12 9 8 9 8 8 8 7 6 5 6 6 7 8 7 6 6 8
6 7 14 11 8 8 5 3 2 11 5 4 7 11 9 15 18 7 10 12 15 15 17 17 15 12 11 9 9 10 9 9 6 5 4 6 8 7 6 6 6 7 7 7
11 10 7 7 8 13 2 4 5 3 5 4 8 8 9 10 6 9 12 15 16 18 18 14 13 11 9 8 9 9 9 5 5 7 6 6 6 4 5 6 6 7 7 7
6 5 5 8 4 2 5 6 3 2 2 4 6 7 4 5 8 12 14 15 15 16 14 12 13 13 9 8 7 9 6 7 6 5 4 3 4 3 4 5 5 5 5 5
3 1 3 1 5 9 6 6 6 7 4 1 0 5 3 6 9 12 13 12 12 12 13 12 12 12 11 8 10 8 5 4 2 2 2 2 3 5 3 4 4 5 5 6
1 7 3 6 10 5 10 11 6 7 3 3 3 7 4 8 10 12 11 11 11 11 10 9 9 10 10 9 8 5 4 2 1 1 1 4 4 5 5 5 5 5 4 6
6 6 6 7 4 2 1 6 7 8 7 7 8 7 8 8 12 13 11 10 12 11 10 10 10 11 9 9 8 5 3 2 1 3 4 5 5 5 6 6 6 8 11 14
Wind_Direction
184 194 202 193 202 256 309 223 213 204 98 221 228 247 251 240 234 241 243 243 236 225 220 208 202 211 223 217 217 218 208 200 198 200 198 191 194 192 205 204 219 210 206 200
175 213 198 213 170 195 198 231 231 104 110 240 243 260 264 251 242 243 245 234 237 229 208 186 212 216 214 221 221 220 220 215 196 199 202 201 199 204 204 200 201 205 208 205
198 178 165 170 183 196 221 239 234 332 163 239 290 268 247 242 240 239 245 249 246 238 238 220 202 224 232 226 224 228 226 220 211 190 199 195 200 176 202 202 194 206 201 204
228 123 179 192 202 196 226 194 188 168 260 271 294 278 229 228 231 229 241 236 233 230 229 244 240 235 234 244 236 238 231 227 217 187 191 199 200 202 199 199 198 197 199 201
160 163 171 197 200 183 201 151 198 172 249 317 205 261 244 97 253 250 224 212 210 185 214 197 208 259 258 255 238 233 233 228 221 216 189 200 210 216 210 191 189 192 194 203
94 6 193 187 70 188 129 116 101 112 224 256 250 223 259 222 242 222 154 187 169 181 162 143 120 71 39 12 236 222 224 221 219 216 211 199 211 212 214 193 178 184 180 195
157 171 134 152 114 137 178 160 180 224 199 254 20 207 250 262 217 275 210 183 181 175 173 150 116 71 39 41 40 41 209 210 211 214 221 206 211 212 219 200 178 165 172 187
192 196 176 174 208 170 191 191 182 205 198 250 97 228 249 271 354 236 340 179 166 179 170 158 99 57 50 44 50 89 77 151 207 208 215 219 128 150 174 166 175 175 189 199
199 218 144 174 149 149 167 208 207 102 80 218 205 250 276 196 219 218 216 192 195 181 173 165 145 85 62 61 48 73 106 88 89 108 80 62 68 90 110 92 68 67 75 90
183 158 197 132 162 219 211 155 161 211 205 233 234 245 251 195 231 215 212 207 185 182 180 165 144 117 89 78 81 79 86 95 98 97 87 78 72 70 72 75 80 81 83 72
200 237 116 156 212 187 169 189 220 224 225 223 249 246 285 256 208 211 203 197 183 183 177 168 137 115 103 90 89 87 91 94 89 90 98 91 84 87 85 82 76 67 93 65
199 223 159 196 115 265 221 214 204 200 207 238 270 264 101 55 266 206 189 177 176 177 169 156 151 140 122 110 97 89 86 79 73 78 88 89 88 83 79 74 66 53 57 55
163 214 116 193 217 196 235 234 241 239 257 207 217 258 100 192 192 195 179 176 169 169 164 160 155 150 133 116 100 88 82 82 79 81 78 75 74 72 67 64 62 55 45 41
162 179 208 219 229 164 203 215 223 237 234 239 230 255 227 183 200 179 186 187 181 180 172 172 162 151 130 121 107 101 90 82 81 77 74 65 58 65 62 51 49 48 39 37
189 212 222 243 250 263 224 219 218 217 230 227 239 243 256 240 200 203 190 183 181 186 186 181 170 160 147 143 121 109 90 79 79 75 64 56 46 44 46 42 28 31 35 27
214 248 217 253 235 252 271 271 238 223 230 240 249 254 255 253 187 185 184 188 196 196 190 182 170 157 164 139 121 110 96 78 75 73 62 46 37 28 34 24 17 20 8 10
206 137 109 259 173 256 275 233 241 246 234 234 236 245 262 251 211 197 191 196 202 198 184 173 168 166 148 136 129 114 99 85 77 72 57 45 30 19 22 13 16 15 1 353
92 85 138 281 87 213 247 250 233 236 241 238 248 258 258 252 248 202 201 200 201 185 176 170 166 152 138 128 116 106 95 88 80 72 60 43 30 14 16 16 11 1 352 348
182 146 208 224 213 274 294 252 218 220 246 236 238 251 252 248 331 226 215 201 188 182 168 155 144 140 136 127 122 112 99 90 79 65 55 39 25 12 12 3 358 348 339 334
215 201 202 178 222 239 263 19 238 187 262 263 234 247 250 193 226 242 186 190 177 159 150 142 134 132 127 119 114 105 96 88 75 55 41 22 14 16 6 351 345 338 328 317
171 200 218 230 254 276 22 330 245 170 257 348 343 333 322 230 234 298 152 144 141 136 134 130 133 125 119 117 113 102 96 75 56 35 24 20 20 2 351 338 335 325 324 314
177 177 195 207 229 248 175 82 214 2 340 321 331 332 309 291 45 113 122 128 133 130 128 119 114 109 98 97 107 104 91 78 51 25 22 9 353 339 344 335 330 324 312 311
209 215 177 209 205 129 178 191 185 198 241 321 324 339 345 101 127 131 133 136 135 126 119 119 118 111 89 78 97 102 70 47 34 17 360 336 305 351 341 329 313 314 327 328
235 137 239 162 216 243 255 229 203 184 243 148 33 301 239 149 136 138 140 135 124 122 123 123 120 119 111 91 75 79 79 54 41 4 328 312 357 355 344 321 343 338 344 341
24 152 199 260 284 299 245 232 245 234 161 183 168 152 216 161 153 146 137 132 123 120 120 127 127 113 110 106 97 92 91 64 41 238 320 16 2 358 351 358 345 335 328 323
193 192 208 253 55 270 21 350 326 248 221 180 159 152 137 168 160 149 143 136 133 132 131 118 115 123 130 130 124 112 84 97 357 45 25 16 3 357 351 343 334 340 328 326